Location: Eboldshausen
(51.7766°N, 10.0050°E)
Time: 07:04:44
(UTC+00:00)

Cosmos 2173 Rocket - Pass Details

Date: 15 November 2025
Orbit: 943 x 1000 km, 83.0° (Epoch: 12 December)

Event Time Altitude Azimuth Distance (km) Brightness Sun altitude
Rises 16:21:40 0° 196° (SSW) 3,658 7.6 -8.2°
Reaches altitude 10° 16:24:12 10° 199° (SSW) 2,706 6.9 -8.5°
Maximum altitude 16:30:22 70° 282° (WNW) 1,023 4.4 -9.4°
Drops below altitude 10° 16:36:30 10° 7° (N) 2,689 6.1 -10.3°
Sets 16:39:01 0° 10° (N) 3,633 6.7 -10.7°
